Beaumont, TX

6:38 AM CDT on March 27, 2017 (GMT -0500)
Southeast Texas Regional

Weather History for KBPT - November, 2013

Change the Weather History Date:

Tuesday, November 19, 2013

  Actual Average Record
Temperature  
Mean Temperature 61 °F 61 °F  
Max Temperature 69 °F 71 °F 84 °F (1908)
Min Temperature 53 °F 51 °F 30 °F (1951)
Degree Days  
Heating Degree Days 4 6  
Month to date heating degree days 74 79  
Since 1 July heating degree days 83 113  
Cooling Degree Days 0 2  
Month to date cooling degree days 44 50  
Year to date cooling degree days 2989 2841  
Growing Degree Days 11 (Base 50)    
Moisture  
Dew Point 40 °F    
Average Humidity 50    
Maximum Humidity 66    
Minimum Humidity 33    
Precipitation  
Precipitation 0.00 in 0.14 in 2.55 in (1976)
Month to date precipitation 0.39 2.81  
Year to date precipitation 51.52 53.59  
Snow  
Snow 0.00 in 0.00 in 0.00 in ()
Month to date snowfall 0.0 0.0  
Since 1 July snowfall 0.0 0.0  
Since 1 September snowfall 0.0 0.0  
Snow Depth 0.00 in    
Sea Level Pressure  
Sea Level Pressure 30.09 in    
Wind  
Wind Speed 11 mph (ENE)    
Max Wind Speed 22 mph    
Max Gust Speed 28 mph    
Visibility 10 miles    
Events      
T = Trace of Precipitation, MM = Missing Value Source: NWS Daily Summary

Daily Weather History Graph

Daily Weather History Graph

Search for Another Location

Airport or City:

Trip Planner

Search our weather history database for the weather conditions in past years. The results will help you decide how hot, cold, wet, or windy it might be!

Date:

Astronomy

Nov. 19, 2013 Rise Set
Actual Time 6:44 AM CST 5:18 PM CST
Civil Twilight 6:19 AM CST 5:43 PM CST
Nautical Twilight 5:50 AM CST 6:12 PM CST
Astronomical Twilight 5:21 AM CST 6:41 PM CST
Moon 7:11 PM CST (11/19) 8:23 AM CST (11/19)
Length of Visible Light 11h 24m
Length of Day
10h 33m
Waning Gibbous, 96% of the Moon is Illuminated
Nov 19
Waning Gibbous
Nov 25
Last Quarter
Dec 2
New
Dec 9
First Quarter
Dec 17
Full

Hourly Weather History & Observations

Time (CST) Temp. Dew Point Humidity Pressure Visibility Wind Dir Wind Speed Gust Speed Precip Events Conditions
12:53 AM 61.0 °F 39.9 °F 46% 30.10 in 10.0 mi NE 13.8 mph - N/A   Overcast
1:53 AM 60.1 °F 39.0 °F 46% 30.09 in 10.0 mi NE 11.5 mph - N/A   Mostly Cloudy
2:53 AM 59.0 °F 39.0 °F 48% 30.08 in 10.0 mi NE 12.7 mph - N/A   Overcast
3:53 AM 59.0 °F 39.9 °F 49% 30.09 in 10.0 mi ENE 15.0 mph - N/A   Mostly Cloudy
4:53 AM 59.0 °F 39.9 °F 49% 30.09 in 10.0 mi ENE 12.7 mph - N/A   Scattered Clouds
5:53 AM 57.9 °F 41.0 °F 53% 30.10 in 10.0 mi ENE 13.8 mph - N/A   Clear
6:53 AM 59.0 °F 41.0 °F 51% 30.11 in 10.0 mi ENE 12.7 mph 21.9 mph N/A   Mostly Cloudy
7:53 AM 59.0 °F 39.9 °F 49% 30.13 in 10.0 mi ENE 15.0 mph 26.5 mph N/A   Scattered Clouds
8:53 AM 60.1 °F 39.0 °F 46% 30.15 in 10.0 mi ENE 17.3 mph - N/A   Overcast
9:53 AM 62.1 °F 39.9 °F 44% 30.17 in 10.0 mi East 17.3 mph - N/A   Partly Cloudy
10:53 AM 64.0 °F 41.0 °F 43% 30.14 in 10.0 mi ENE 16.1 mph 24.2 mph N/A   Partly Cloudy
11:53 AM 66.0 °F 42.1 °F 42% 30.12 in 10.0 mi East 16.1 mph - N/A   Clear
12:53 PM 66.0 °F 42.1 °F 42% 30.10 in 10.0 mi ENE 10.4 mph - N/A   Clear
1:53 PM 68.0 °F 41.0 °F 37% 30.07 in 10.0 mi ENE 8.1 mph - N/A   Clear
2:53 PM 69.1 °F 39.0 °F 33% 30.05 in 10.0 mi NE 9.2 mph - N/A   Clear
3:53 PM 68.0 °F 39.9 °F 36% 30.05 in 10.0 mi NE 8.1 mph - N/A   Clear
4:53 PM 64.9 °F 39.9 °F 40% 30.05 in 10.0 mi NE 9.2 mph - N/A   Clear
5:53 PM 61.0 °F 41.0 °F 48% 30.06 in 10.0 mi NE 5.8 mph - N/A   Clear
6:53 PM 57.0 °F 42.1 °F 57% 30.07 in 10.0 mi East 6.9 mph - N/A   Clear
7:53 PM 57.0 °F 42.1 °F 57% 30.07 in 10.0 mi ENE 5.8 mph - N/A   Clear
8:53 PM 57.0 °F 41.0 °F 55% 30.08 in 10.0 mi ENE 5.8 mph - N/A   Clear
9:53 PM 55.0 °F 41.0 °F 59% 30.07 in 10.0 mi NE 5.8 mph - N/A   Clear
10:53 PM 53.1 °F 42.1 °F 66% 30.06 in 10.0 mi NE 6.9 mph - N/A   Clear
11:53 PM 54.0 °F 37.0 °F 53% 30.06 in 10.0 mi ENE 9.2 mph - N/A   Clear